Temp
69 70 71 73 73 74 74 75 75 76 78 78 76 75 72 73 73 73 73 73 73 73 72 72 72 72 71 71 71 70 69 69 71 68 68 70 73 74 76 76 75 76 77
69 69 70 71 72 72 73 73 73 74 75 75 75 74 72 71 71 70 70 71 71 70 70 69 69 69 69 68 67 67 65 66 68 63 62 61 66 73 71 71 72 74 76
68 68 69 69 69 69 70 70 71 71 73 74 73 72 72 71 69 68 68 68 69 68 68 67 67 67 66 65 65 64 62 60 64 66 60 56 56 59 66 68 70 72 72
69 68 68 67 67 67 69 69 70 70 71 72 71 69 68 64 66 67 67 67 67 66 65 65 65 65 65 63 63 64 62 61 58 61 64 62 60 53 53 64 65 68 67
68 66 65 65 66 66 66 67 68 68 68 69 69 68 65 65 66 66 65 65 65 64 63 63 62 62 62 62 61 60 60 61 58 57 57 58 59 59 54 51 56 62 64
67 66 64 65 64 65 65 65 65 65 66 66 66 64 63 63 63 62 63 63 64 63 61 61 61 61 59 59 59 59 58 58 56 57 57 55 53 52 52 51 52 54 59
65 63 63 64 64 63 63 64 64 62 64 64 63 63 62 61 60 61 61 60 61 60 58 59 59 59 58 58 58 56 55 55 53 54 55 56 54 55 53 51 52 51 55
66 65 64 64 63 62 63 63 62 61 62 61 61 61 61 60 60 59 59 59 58 58 57 57 57 57 57 57 57 55 54 55 55 54 54 54 54 54 53 51 49 45 48
64 64 63 64 63 62 62 61 60 60 60 60 60 60 60 59 57 58 58 56 56 56 56 56 56 56 56 56 55 54 54 55 55 53 54 53 53 54 54 53 51 45 40
64 63 63 62 62 61 60 60 61 59 58 59 59 58 58 58 57 57 55 55 55 55 55 55 55 55 55 54 54 54 54 53 53 53 52 51 52 52 52 50 50 49 46
63 63 62 61 60 60 60 59 59 58 57 57 57 57 56 55 56 55 54 54 54 54 53 53 53 53 52 53 52 52 52 50 50 51 50 49 51 49 49 49 48 47 46
64 63 61 59 58 58 58 58 58 57 56 56 55 54 54 54 54 53 53 53 52 53 52 52 51 51 51 51 50 49 50 49 48 49 48 47 49 47 47 47 46 46 47
61 61 59 58 58 57 57 57 57 55 55 54 54 54 53 53 52 52 52 52 51 51 51 50 49 49 48 48 49 49 48 48 48 48 47 46 46 45 45 45 45 46 45
60 59 58 58 58 57 56 56 55 54 53 52 52 51 50 51 51 50 50 50 50 49 49 49 48 48 47 47 48 47 47 47 47 47 46 46 45 44 43 44 43 43 42
59 58 57 57 56 55 55 54 53 53 52 51 50 49 49 49 49 49 48 49 48 48 48 46 47 47 47 48 44 44 44 44 45 45 45 45 44 43 44 43 41 40 40
59 58 57 57 55 54 53 52 51 50 51 50 48 47 47 47 47 47 47 47 47 47 46 46 46 45 46 44 42 42 42 43 43 43 44 45 43 44 43 43 43 42 39
59 56 56 55 53 53 53 51 51 50 49 48 47 46 46 45 46 46 46 45 45 46 45 45 45 44 44 43 41 41 42 42 43 43 42 43 45 43 41 43 43 42 40
57 56 55 52 52 52 51 51 50 49 47 46 46 45 44 44 45 45 45 45 45 45 44 44 44 43 43 41 40 39 42 42 43 43 42 42 41 41 42 42 39 38 41
56 54 54 52 50 50 51 50 48 45 46 45 44 44 44 43 44 44 44 44 44 43 43 43 42 41 41 40 39 40 41 41 41 42 42 41 40 41 41 38 34 36 39
52 50 50 50 51 50 50 48 44 44 45 44 43 44 44 43 43 43 43 43 43 42 42 41 42 40 40 40 39 40 40 38 40 40 40 41 41 41 40 37 38 32 35
48 49 49 49 49 49 47 43 42 44 44 43 43 43 44 43 43 43 43 42 41 41 41 40 41 41 41 40 40 39 39 38 37 37 39 41 40 39 39 39 37 35 36
46 48 48 47 48 47 45 41 43 43 43 42 42 42 43 42 42 41 42 41 40 39 39 38 38 40 41 40 39 39 39 39 36 36 39 39 38 38 37 37 37 37 36
46 48 48 46 44 43 45 44 43 42 41 41 41 42 42 42 42 41 39 39 39 37 37 36 36 37 39 40 39 39 39 38 37 39 38 37 37 36 36 36 36 35 33
46 46 46 43 41 43 42 42 42 41 40 40 41 41 41 40 41 40 40 38 37 36 35 35 35 35 36 37 38 38 38 38 38 36 36 37 36 35 35 34 34 34 32
45 45 45 45 44 42 41 41 40 40 39 40 40 40 40 40 39 39 39 37 38 36 34 34 34 34 33 35 37 36 37 36 36 35 35 34 33 30 31 32 32 32 31
44 43 44 43 41 40 40 40 40 39 38 38 39 39 38 39 38 37 37 38 37 37 36 36 35 36 36 37 37 37 36 36 36 33 31 29 29 28 29 29 29 29 28
MSLP
1010.09 1010.45 1010.54 1010.50 1010.53 1010.39 1010.16 1010.04 1009.97 1009.97 1009.86 1009.90 1010.17 1010.60 1011.43 1011.87 1012.28 1012.62 1012.65 1012.62 1012.59 1012.49 1012.35 1012.21 1012.05 1011.86 1011.60 1011.51 1011.35 1010.97 1010.53 1009.89 1009.45 1008.80 1007.92 1007.25 1006.35 1005.56 1004.96 1004.54 1004.42 1004.03 1003.61
1010.02 1010.57 1010.79 1010.83 1010.91 1010.87 1010.78 1010.65 1010.67 1010.72 1010.79 1010.91 1011.15 1011.55 1012.06 1012.50 1012.86 1013.15 1013.30 1013.24 1013.24 1013.16 1012.95 1012.86 1012.64 1012.46 1012.15 1011.94 1011.75 1011.36 1010.88 1010.26 1009.90 1009.23 1008.36 1006.50 1005.94 1005.09 1005.23 1005.26 1004.58 1003.62 1003.11
1009.67 1010.52 1010.93 1011.21 1011.49 1011.52 1011.55 1011.38 1011.31 1011.56 1011.83 1011.99 1012.32 1012.60 1012.71 1012.87 1013.17 1013.53 1013.70 1013.87 1013.75 1013.81 1013.72 1013.55 1013.27 1012.98 1012.70 1012.37 1012.16 1011.82 1011.49 1010.78 1010.35 1009.83 1009.40 1007.50 1006.48 1006.21 1005.96 1004.96 1004.33 1003.43 1003.04
1009.81 1010.64 1011.20 1011.59 1012.05 1012.29 1012.25 1012.12 1012.26 1012.36 1012.48 1012.55 1012.75 1012.82 1013.07 1013.50 1014.02 1014.08 1014.36 1014.36 1014.38 1014.36 1014.28 1014.08 1013.82 1013.48 1013.18 1012.88 1012.56 1012.16 1011.86 1011.27 1010.62 1010.22 1009.65 1009.26 1008.53 1007.17 1005.06 1004.89 1004.70 1003.98 1003.49
1009.94 1010.83 1011.60 1012.18 1012.58 1012.82 1012.79 1012.83 1012.91 1012.94 1013.27 1013.46 1013.47 1013.58 1013.89 1014.25 1014.57 1014.65 1014.63 1014.69 1014.68 1014.79 1014.85 1014.53 1014.26 1013.92 1013.61 1013.33 1013.03 1012.63 1012.20 1011.72 1011.26 1010.68 1010.05 1009.46 1008.69 1007.99 1007.03 1004.45 1004.56 1004.46 1003.86
1010.30 1011.17 1012.01 1012.45 1012.79 1013.21 1013.26 1013.33 1013.46 1013.88 1014.10 1014.23 1014.38 1014.51 1014.73 1014.89 1015.02 1015.12 1014.90 1014.86 1014.86 1014.92 1015.05 1014.81 1014.47 1014.16 1014.01 1013.76 1013.32 1012.94 1012.47 1012.08 1011.72 1011.11 1010.45 1009.79 1009.11 1008.31 1007.62 1006.19 1004.79 1003.96 1003.32
1010.46 1011.33 1011.93 1012.34 1012.83 1013.31 1013.70 1013.82 1014.08 1014.37 1014.68 1014.81 1015.03 1015.17 1015.47 1015.55 1015.52 1015.40 1015.28 1015.22 1015.13 1015.20 1015.26 1014.99 1014.67 1014.45 1014.28 1013.95 1013.55 1013.16 1012.71 1012.20 1011.91 1011.31 1010.52 1010.04 1009.49 1008.81 1008.09 1006.97 1005.17 1003.88 1003.00
1010.31 1011.07 1011.76 1012.35 1013.01 1013.59 1013.98 1014.31 1014.64 1014.85 1015.15 1015.42 1015.51 1015.74 1015.94 1016.04 1016.01 1015.98 1015.90 1015.83 1015.79 1015.70 1015.68 1015.43 1015.10 1014.76 1014.42 1013.96 1013.54 1013.14 1012.76 1012.16 1011.68 1011.20 1010.61 1009.99 1009.49 1008.81 1008.14 1007.24 1006.12 1004.24 1003.19
1010.18 1011.08 1011.88 1012.54 1013.27 1013.85 1014.38 1014.75 1015.05 1015.43 1015.73 1015.96 1016.03 1016.13 1016.34 1016.37 1016.40 1016.44 1016.39 1016.36 1016.28 1016.15 1015.85 1015.51 1015.12 1014.71 1014.32 1013.97 1013.59 1013.01 1012.46 1012.00 1011.43 1010.96 1010.33 1009.86 1009.23 1008.59 1007.88 1007.22 1006.59 1005.64 1003.83
1010.22 1011.25 1012.09 1012.87 1013.56 1014.32 1014.87 1015.23 1015.48 1015.86 1016.22 1016.40 1016.55 1016.67 1016.68 1016.77 1016.81 1016.78 1016.76 1016.65 1016.47 1016.24 1015.92 1015.56 1015.16 1014.70 1014.30 1013.94 1013.51 1012.88 1012.34 1011.81 1011.38 1010.79 1010.25 1009.69 1009.00 1008.43 1007.78 1007.39 1006.70 1005.83 1004.86
1010.15 1011.27 1012.21 1013.14 1013.92 1014.60 1015.08 1015.52 1015.94 1016.24 1016.44 1016.70 1016.88 1016.93 1017.01 1017.09 1017.09 1017.04 1016.93 1016.87 1016.59 1016.36 1016.02 1015.65 1015.23 1014.81 1014.36 1013.92 1013.40 1012.78 1012.17 1011.69 1011.11 1010.57 1009.93 1009.36 1008.73 1008.20 1007.67 1007.09 1006.39 1005.56 1004.86
1010.12 1011.31 1012.32 1013.27 1014.02 1014.64 1015.27 1015.68 1016.18 1016.44 1016.71 1016.92 1017.09 1017.23 1017.37 1017.34 1017.25 1017.25 1017.08 1016.93 1016.70 1016.42 1016.16 1015.82 1015.40 1014.87 1014.33 1013.86 1013.26 1012.57 1012.05 1011.42 1010.73 1010.13 1009.54 1008.97 1008.40 1007.94 1007.33 1006.61 1005.95 1005.16 1004.27
1010.32 1011.45 1012.44 1013.24 1013.94 1014.74 1015.38 1015.89 1016.30 1016.64 1016.95 1017.18 1017.25 1017.39 1017.52 1017.48 1017.43 1017.33 1017.27 1017.08 1016.81 1016.56 1016.20 1015.79 1015.35 1014.80 1014.30 1013.82 1013.15 1012.49 1011.81 1011.08 1010.39 1009.77 1009.22 1008.63 1008.19 1007.50 1006.85 1006.27 1005.48 1004.52 1003.75
1010.29 1011.29 1012.34 1013.15 1013.99 1014.81 1015.44 1015.97 1016.45 1016.85 1017.24 1017.47 1017.50 1017.69 1017.80 1017.80 1017.68 1017.54 1017.44 1017.24 1016.94 1016.54 1016.12 1015.72 1015.24 1014.70 1014.17 1013.55 1012.83 1012.38 1011.53 1010.76 1010.10 1009.54 1008.95 1008.43 1007.87 1007.17 1006.50 1005.78 1004.86 1004.23 1003.54
1010.17 1011.21 1012.06 1012.98 1013.97 1014.87 1015.57 1016.14 1016.69 1017.10 1017.45 1017.58 1017.76 1017.98 1018.04 1017.95 1017.78 1017.69 1017.48 1017.18 1016.82 1016.43 1016.05 1015.58 1014.96 1014.40 1013.84 1013.11 1012.93 1012.23 1011.36 1010.50 1009.70 1009.05 1008.55 1007.99 1007.47 1006.97 1006.13 1005.24 1004.62 1004.09 1002.91
1009.95 1011.02 1012.01 1012.91 1013.95 1014.87 1015.56 1016.33 1016.86 1017.33 1017.57 1017.75 1017.95 1018.10 1018.05 1017.95 1017.88 1017.71 1017.39 1016.98 1016.59 1016.19 1015.75 1015.12 1014.56 1013.96 1013.41 1013.01 1012.72 1012.20 1011.25 1010.32 1009.33 1008.50 1007.89 1007.32 1006.66 1005.90 1005.32 1004.77 1004.08 1003.40 1002.44
1009.80 1010.96 1011.99 1013.10 1014.19 1014.91 1015.70 1016.33 1016.89 1017.36 1017.60 1017.84 1018.02 1018.06 1018.04 1017.99 1017.88 1017.59 1017.21 1016.74 1016.26 1015.78 1015.24 1014.70 1014.18 1013.56 1013.07 1012.67 1012.44 1011.82 1010.93 1009.79 1008.94 1008.14 1007.35 1006.50 1005.92 1005.44 1004.83 1003.92 1003.14 1002.47 1002.13
1010.33 1011.33 1012.38 1013.57 1014.50 1015.36 1016.00 1016.59 1017.09 1017.40 1017.70 1017.81 1017.93 1018.06 1018.18 1018.01 1017.70 1017.31 1016.76 1016.26 1015.89 1015.38 1014.82 1014.24 1013.85 1013.28 1012.68 1012.42 1012.01 1011.41 1010.27 1009.25 1008.45 1007.73 1006.92 1006.05 1005.42 1004.92 1004.02 1002.94 1002.09 1001.50 1000.70
1011.13 1012.02 1012.92 1013.94 1014.93 1015.60 1016.24 1016.77 1017.22 1017.68 1017.77 1017.77 1017.99 1018.19 1018.15 1017.87 1017.48 1016.91 1016.48 1016.06 1015.55 1015.02 1014.44 1014.01 1013.43 1012.84 1012.27 1011.91 1011.60 1010.84 1009.74 1008.70 1007.83 1007.14 1006.48 1005.99 1005.05 1004.19 1003.52 1002.48 1001.53 1000.72 999.73
1012.29 1012.94 1013.78 1014.59 1015.20 1015.96 1016.52 1016.92 1017.46 1017.71 1017.67 1018.03 1018.19 1018.19 1018.04 1017.71 1017.22 1016.86 1016.41 1015.93 1015.43 1014.78 1014.24 1013.55 1013.03 1012.48 1011.80 1011.36 1011.03 1010.41 1009.40 1008.28 1007.37 1006.67 1006.12 1005.23 1004.43 1003.56 1003.00 1002.00 1000.83 999.94 999.03
1013.10 1013.75 1014.32 1014.84 1015.56 1016.32 1016.84 1017.23 1017.58 1017.60 1018.04 1018.24 1018.23 1018.07 1017.79 1017.49 1017.20 1016.75 1016.33 1015.76 1015.09 1014.46 1013.74 1013.09 1012.45 1011.96 1011.43 1010.89 1010.49 1009.99 1009.03 1008.04 1007.11 1006.15 1005.15 1004.46 1003.78 1003.10 1002.26 1001.48 1000.47 999.59 998.62
1013.83 1014.22 1014.67 1015.27 1016.03 1016.64 1017.04 1017.40 1017.57 1017.98 1018.20 1018.21 1018.03 1017.74 1017.57 1017.37 1016.97 1016.46 1015.88 1015.31 1014.68 1014.00 1013.19 1012.52 1011.94 1011.39 1010.81 1010.39 1009.87 1009.32 1008.59 1007.84 1006.94 1005.72 1004.70 1003.92 1003.34 1002.50 1001.80 1000.88 1000.07 999.30 998.31
1014.04 1014.47 1014.91 1015.66 1016.48 1017.00 1017.31 1017.39 1017.72 1018.10 1018.10 1017.97 1017.78 1017.59 1017.34 1016.94 1016.51 1016.06 1015.55 1014.96 1014.38 1013.73 1012.99 1012.28 1011.48 1010.83 1010.44 1009.84 1009.28 1008.65 1007.99 1007.19 1006.18 1005.32 1004.45 1003.58 1002.78 1002.15 1001.34 1000.47 999.85 998.98 998.15
1014.24 1014.77 1015.23 1015.85 1016.56 1017.15 1017.62 1017.87 1017.99 1018.09 1018.05 1017.91 1017.70 1017.35 1016.95 1016.61 1016.22 1015.86 1015.32 1014.74 1014.15 1013.59 1013.01 1012.17 1011.38 1010.80 1010.14 1009.41 1008.80 1008.19 1007.33 1006.48 1005.62 1004.93 1004.10 1003.25 1002.50 1001.88 1001.10 1000.22 999.36 998.62 997.90
1014.45 1014.92 1015.40 1015.97 1016.62 1017.35 1017.72 1017.90 1017.97 1018.14 1018.09 1017.85 1017.45 1017.09 1016.77 1016.29 1015.77 1015.32 1014.90 1014.57 1014.18 1013.90 1013.27 1012.42 1011.77 1010.77 1009.90 1009.26 1008.65 1007.88 1006.84 1006.03 1005.33 1004.34 1003.62 1002.78 1002.15 1001.56 1000.70 999.85 999.07 998.19 997.38
1014.74 1015.29 1015.76 1016.32 1017.00 1017.34 1017.50 1017.83 1018.14 1018.26 1018.03 1017.56 1017.15 1016.89 1016.52 1015.92 1015.50 1014.92 1014.27 1014.09 1013.72 1013.38 1013.01 1012.48 1011.83 1010.88 1010.15 1009.15 1008.24 1007.47 1006.68 1005.85 1005.01 1004.31 1003.54 1002.90 1002.33 1001.45 1000.51 999.66 998.63 997.92 997.10
Wind_Speed
7 7 8 8 10 11 12 12 12 10 7 8 8 8 8 8 9 9 12 12 10 11 10 7 8 8 7 8 9 9 11 9 10 11 11 11 15 12 12 10 10 14 16
9 9 10 10 11 12 13 13 13 13 10 7 8 8 9 9 8 8 10 11 11 11 9 9 8 9 7 8 9 9 9 9 9 11 12 9 12 9 12 14 14 16 14
14 11 11 11 10 12 12 13 14 14 11 11 9 8 8 7 7 7 7 9 10 11 10 10 8 8 7 7 9 9 10 9 10 11 9 9 9 14 12 15 14 14 13
13 12 11 12 11 11 11 13 13 13 12 11 10 12 8 8 7 6 7 6 10 10 11 10 9 9 7 8 8 9 9 10 10 9 9 12 14 14 14 8 14 15 15
14 13 12 11 10 9 10 11 13 14 13 12 11 9 9 7 6 5 6 7 7 8 10 10 9 9 7 9 10 10 10 8 9 9 10 11 11 13 14 16 12 14 14
14 13 12 11 11 9 10 11 13 12 12 12 12 12 11 8 6 6 5 5 5 6 9 9 8 8 8 9 9 10 10 9 9 9 9 9 10 11 12 15 16 17 14
15 14 13 12 11 10 10 10 11 12 11 12 11 10 9 8 7 7 6 7 6 6 9 10 10 8 9 9 9 10 9 9 9 11 9 9 10 11 12 13 14 16 14
14 14 13 12 11 10 10 10 10 11 10 10 10 9 8 5 5 7 6 5 6 7 9 9 9 9 9 9 10 8 8 9 9 13 11 9 11 10 11 12 13 15 16
15 14 13 11 11 10 10 10 10 9 8 8 7 8 7 7 6 7 6 5 6 6 8 9 10 10 11 11 11 9 11 11 10 12 12 11 11 11 11 11 11 12 16
15 13 12 12 10 10 9 9 9 9 8 7 7 6 7 7 6 5 6 6 6 7 9 10 10 11 11 12 12 10 11 12 10 10 14 14 12 12 11 12 12 13 13
15 13 12 11 10 10 9 9 8 8 7 6 6 6 6 5 5 5 6 7 7 8 9 10 11 11 12 12 12 13 13 14 14 14 14 16 15 12 12 13 13 13 13
15 13 13 12 11 10 9 8 7 7 6 5 5 5 4 4 5 5 6 7 8 8 9 10 11 12 12 13 13 13 14 15 16 16 16 17 12 17 16 13 16 14 16
15 13 13 12 11 10 9 8 7 6 6 5 5 4 4 5 6 7 7 7 8 9 9 10 11 12 13 13 13 14 16 16 16 16 17 17 18 17 14 15 15 13 13
14 13 13 12 11 10 9 8 7 6 5 4 4 4 5 6 6 6 7 7 8 9 10 11 12 12 13 13 12 16 16 17 16 17 17 18 17 18 19 17 18 15 16
14 14 14 12 12 11 9 7 6 5 4 3 3 4 5 6 6 7 7 8 9 9 10 11 12 12 12 10 15 16 17 18 18 17 17 16 19 25 22 14 16 17 16
13 13 13 14 13 11 9 7 6 5 3 3 3 4 5 6 7 8 9 9 10 10 11 12 12 13 10 18 20 20 17 18 18 17 18 18 22 20 26 28 30 25 19
12 13 13 12 11 10 9 8 6 5 3 3 3 5 6 7 8 9 9 9 10 11 12 13 13 15 15 19 21 23 16 17 16 18 18 17 14 20 18 24 29 27 26
9 10 11 11 11 9 8 7 5 4 3 2 3 5 6 7 8 9 10 11 10 12 12 13 14 15 13 19 21 23 18 17 17 18 18 19 20 19 22 21 20 18 18
6 9 11 12 11 9 8 6 5 3 0 4 4 5 6 8 9 10 11 12 11 12 13 13 14 15 15 20 20 21 17 17 18 17 18 18 20 26 31 21 18 21 19
9 11 12 11 10 8 7 5 4 1 3 4 5 6 7 9 10 11 12 11 12 13 12 14 13 16 15 18 20 20 13 17 14 17 19 23 24 31 31 21 22 19 18
11 11 11 9 8 7 6 4 3 1 3 4 5 7 7 9 10 11 11 12 13 13 14 14 13 13 13 15 21 23 15 13 14 13 13 13 28 31 35 35 19 18 24
11 10 9 8 7 6 4 4 1 2 3 5 6 8 9 8 9 11 11 12 12 14 14 14 12 10 12 18 19 23 25 23 16 17 14 16 29 34 34 26 27 32 27
9 8 8 8 6 5 3 3 2 2 4 6 7 9 10 9 10 11 12 11 11 11 12 11 12 12 12 12 21 24 26 26 18 14 22 31 32 30 23 24 30 25 12
8 7 7 6 6 5 3 1 1 3 5 7 9 9 9 10 10 8 8 9 10 10 11 12 13 12 13 12 12 13 13 20 17 20 14 23 24 23 23 19 15 12 12
7 7 6 6 6 4 3 1 2 4 6 8 8 9 8 10 10 10 9 9 10 11 12 12 13 13 13 13 23 22 16 15 18 22 14 12 13 13 13 12 13 13 13
8 7 6 6 6 4 1 1 3 5 6 8 7 7 8 9 9 10 10 12 14 18 19 21 17 12 22 27 29 30 29 30 30 14 12 13 13 13 14 14 15 14 17
Wind_Direction
98 86 79 80 77 64 64 60 70 74 97 106 100 94 93 87 76 65 60 56 48 45 37 29 20 10 7 1 348 339 331 322 321 315 306 304 281 279 284 303 297 294 289
125 105 95 88 79 75 71 69 68 65 68 78 81 92 91 78 78 70 58 50 46 39 36 24 15 9 353 353 348 344 332 321 330 315 313 307 301 293 339 310 285 293 298
140 131 114 96 87 78 76 77 77 79 76 88 97 99 97 86 74 57 55 42 42 34 27 21 9 2 353 348 342 341 332 320 318 328 311 313 312 315 300 310 290 302 317
141 133 120 105 92 85 83 80 78 79 74 83 84 81 76 77 60 53 46 45 35 33 20 13 6 0 350 348 341 341 333 330 324 321 317 310 308 306 309 308 316 291 323
147 137 125 113 101 96 89 88 83 77 75 72 72 76 76 73 59 47 38 31 30 27 16 7 1 357 354 349 340 337 334 327 326 322 320 314 311 309 310 309 313 295 300
150 138 131 129 114 110 100 94 89 82 78 77 75 74 73 65 56 40 28 18 15 11 16 0 1 360 355 348 339 338 335 330 327 318 314 312 313 310 304 298 304 301 301
157 151 149 138 128 117 108 102 98 93 88 84 77 76 73 65 54 31 23 11 6 6 5 359 357 355 349 342 336 334 328 324 324 317 312 314 306 304 300 297 298 300 301
166 163 152 142 134 127 118 114 106 98 90 86 83 75 62 52 43 34 19 14 5 2 356 350 345 343 340 338 336 321 322 318 310 316 310 305 302 301 300 299 302 305 301
169 161 152 147 140 132 120 116 112 104 95 88 81 72 60 52 41 28 19 8 5 349 346 343 340 340 339 335 329 321 316 319 319 313 310 306 304 301 298 301 303 296 298
167 159 156 149 139 128 120 116 112 107 98 85 73 66 59 46 32 23 15 6 355 349 343 342 339 335 334 329 325 318 320 317 316 308 308 305 302 305 304 301 297 294 297
168 164 159 149 140 135 135 127 124 121 106 93 81 67 54 39 27 19 8 356 347 346 339 338 334 329 325 323 320 321 317 316 311 310 306 306 305 303 303 300 296 297 293
168 165 158 152 152 147 145 138 135 122 107 93 79 63 43 21 18 8 5 351 344 339 337 331 324 321 321 323 322 319 319 313 311 310 308 307 308 304 302 299 300 294 293
164 163 160 165 160 157 153 147 137 121 107 90 67 48 21 8 6 4 352 343 339 331 327 325 323 322 322 321 318 320 314 311 310 309 309 308 308 303 303 303 301 298 306
170 169 171 172 166 163 158 147 131 117 102 82 55 29 11 1 355 348 340 332 329 323 326 324 321 319 317 315 321 318 314 313 310 309 308 308 306 306 310 303 305 311 304
176 180 180 174 170 165 156 142 128 118 112 92 57 23 359 356 341 334 330 327 325 319 318 316 316 315 316 314 324 317 315 312 310 308 309 306 307 303 298 303 307 303 298
186 184 182 179 171 165 159 144 136 130 133 91 36 5 354 347 332 325 324 319 317 317 316 316 317 316 313 321 319 318 313 310 309 311 310 309 307 308 312 307 307 300 296
182 183 180 173 167 163 152 152 144 142 125 76 24 359 349 332 321 318 316 317 318 317 317 317 317 315 315 319 318 317 310 308 309 310 310 310 309 316 306 304 303 307 307
161 165 163 159 155 145 147 139 142 130 117 78 18 357 330 316 317 316 318 321 319 315 317 315 315 311 312 317 319 321 309 312 313 310 312 309 314 307 307 307 310 293 305
138 151 152 146 146 148 144 142 136 125 156 35 359 329 319 317 316 320 322 317 317 314 314 314 312 312 313 323 320 317 317 314 312 315 313 311 306 310 314 315 313 308 310
128 133 135 139 144 140 144 147 130 187 32 359 332 317 313 311 319 317 315 313 311 309 312 310 313 314 313 317 317 320 314 312 313 314 309 309 311 313 316 313 313 314 314
126 131 139 143 136 139 137 138 154 30 14 328 315 309 314 316 309 312 312 312 312 311 311 313 317 315 316 313 320 320 317 316 313 307 309 308 314 316 319 317 311 309 313
138 143 140 135 133 134 136 144 201 26 321 314 311 315 314 312 307 311 310 313 313 313 316 319 317 316 317 320 318 319 318 316 312 310 307 313 314 322 320 317 317 318 318
146 146 141 135 124 128 174 209 104 315 323 320 315 307 307 308 308 311 312 314 319 320 320 318 316 319 323 318 319 318 318 317 313 310 311 316 323 320 316 315 319 320 312
153 149 146 144 153 161 169 236 31 345 324 307 303 307 310 315 311 312 312 314 317 320 317 315 317 319 317 319 320 316 311 314 316 313 314 319 318 319 316 319 316 312 309
153 158 170 177 159 161 175 86 1 317 293 298 305 309 310 310 313 314 317 312 309 312 309 310 313 313 314 316 316 318 318 317 315 328 321 317 323 316 317 316 315 313 311
162 165 164 162 155 163 125 297 279 274 291 303 311 312 308 314 317 314 313 310 300 305 306 306 305 306 309 311 315 319 318 320 329 326 320 323 315 316 318 318 316 314 312